KW1M Weather Reports


Display with metric or nautical units.
time (UTC)temp
F
wind
direction
speed
MPH
gust
MPH
rain 1hr
in
rain 24hr
in
rain mn
in
humidity
%
barometer
mb
20260510230040 66 187 3.0 14.0 0.00 0.01 0.01 43 1013.1
20260510224538 66 187 2.0 11.0 0.00 0.02 0.01 43 1012.9
20260510223037 68 187 1.0 11.0 0.00 0.02 0.01 44 1012.6
20260510221538 68 188 0.0 8.0 0.00 0.02 0.01 49 1012.3
20260510220035 68 186 2.0 10.0 0.00 0.02 0.01 50 1012.1
20260510214533 69 44 4.0 0.0 0.00 0.00 0.01 50 1012.0
20260510213035 69 187 2.0 5.0 0.00 0.10 0.01 58 1012.0
20260510211529 69 183 2.0 6.0 0.00 0.10 0.01 61 1012.0
20260510210025 67 187 0.0 3.0 0.00 0.10 0.01 68 1012.1
20260510204525 66 44 0.0 3.0 0.00 0.16 0.01 72 1012.1
20260510203023 66 163 0.0 2.0 0.00 0.16 0.01 71 1011.9
20260510201521 65 44 0.0 2.0 0.00 0.16 0.01 74 1012.0
20260510200020 66 153 0.0 2.0 0.00 0.16 0.01 76 1012.0
20260510194526 64 47 0.0 4.0 0.00 0.22 0.01 77 1012.3
20260510193018 65 46 0.0 3.0 0.00 0.22 0.01 75 1012.4
20260510191516 65 44 0.0 3.0 0.00 0.22 0.01 74 1012.3
20260510190030 67 42 0.0 9.0 0.01 0.22 0.01 63 1012.4
20260510184512 67 186 4.0 16.0 0.01 0.32 0.01 67 1012.0
20260510183010 65 184 3.0 9.0 0.01 0.32 0.01 76 1012.4
20260510181509 63 162 0.0 6.0 0.01 0.32 0.01 76 1012.4
20260510180009 65 103 1.0 11.0 0.00 0.31 0.00 71 1012.5
20260510174507 67 46 2.0 10.0 0.00 0.43 0.00 69 1012.6
20260510173004 66 110 0.0 11.0 0.00 0.43 0.00 72 1012.8
20260510171502 65 47 2.0 11.0 0.00 0.43 0.00 72 1013.1
20260510170059 63 136 0.0 1.0 0.00 0.43 0.00 78 1013.3
20260510164611 62 130 0.0 6.0 0.00 0.51 0.00 78 1013.3
20260510163137 61 169 0.0 4.0 0.00 0.51 0.00 80 1013.4
20260510161552 60 142 2.0 6.0 0.00 0.51 0.00 80 1013.5
20260510160050 60 186 1.0 8.0 0.00 0.51 0.00 84 1013.6
20260510154547 59 139 2.0 9.0 0.00 0.56 0.00 83 1013.5
20260510153058 58 109 0.0 9.0 0.00 0.56 0.00 88 1013.6
20260510151541 57 148 5.0 9.0 0.00 0.56 0.00 92 1013.6
20260510150041 56 141 0.0 4.0 0.00 0.56 0.00 96 1013.6
20260510144542 55 154 0.0 5.0 0.00 0.60 0.00 97 1013.8
20260510143037 53 135 0.0 6.0 0.00 0.60 0.00 98 1013.9
20260510141530 52 187 1.0 7.0 0.00 0.60 0.00 98 1014.1
20260510140027 52 186 2.0 7.0 0.00 0.60 0.00 98 1013.7
20260510134526 51 186 2.0 8.0 0.00 0.60 0.00 98 1013.7
20260510133023 51 162 2.0 7.0 0.00 0.60 0.00 98 1013.7
20260510131525 50 129 1.0 6.0 0.00 0.60 0.00 98 1013.8
20260510130019 50 186 1.0 4.0 0.00 0.60 0.00 98 1013.9
20260510124525 49 149 1.0 7.0 0.00 0.60 0.00 98 1013.7
20260510123016 49 145 0.0 3.0 0.00 0.60 0.00 98 1013.7
20260510121517 49 135 0.0 4.0 0.00 0.60 0.00 98 1014.0
20260510120012 49 160 1.0 6.0 0.00 0.60 0.00 98 1014.0
20260510114512 48 134 2.0 9.0 0.00 0.60 0.00 98 1013.9
20260510113010 48 141 1.0 5.0 0.00 0.60 0.00 98 1013.6
20260510111506 48 136 2.0 9.0 0.00 0.60 0.00 98 1013.3
20260510110007 48 119 0.0 8.0 0.00 0.60 0.00 98 1013.1
20260510104504 47 102 2.0 6.0 0.00 0.60 0.00 98 1013.0
20260510103003 47 121 0.0 4.0 0.00 0.60 0.00 98 1012.7
20260510101501 47 84 0.0 5.0 0.00 0.60 0.00 98 1012.3
20260510100002 46 128 0.0 7.0 0.00 0.60 0.00 98 1012.3
20260510094501 46 186 0.0 2.0 0.00 0.60 0.00 98 1012.1
20260510093103 46 117 0.0 2.0 0.00 0.60 0.00 98 1012.5
20260510091558 46 149 0.0 1.0 0.00 0.60 0.00 98 1012.6
20260510084611 47 132 0.0 0.0 0.00 0.60 0.00 98 1012.5
20260510083053 47 186 0.0 4.0 0.00 0.60 0.00 98 1012.6
20260510081555 47 145 0.0 0.0 0.00 0.60 0.00 98 1012.5
20260510080049 47 153 0.0 2.0 0.00 0.60 0.00 98 1012.4
20260510074549 46 153 0.0 0.0 0.00 0.60 0.00 98 1012.4
20260510073055 46 115 0.0 0.0 0.00 0.60 0.00 98 1012.4
20260510071550 45 186 0.0 0.0 0.00 0.60 0.00 97 1012.6
20260510070050 47 124 0.0 1.0 0.00 0.60 0.00 98 1012.6
20260510064550 47 117 0.0 1.0 0.00 0.60 0.00 98 1012.6
20260510063048 46 118 0.0 2.0 0.00 0.60 0.00 98 1012.5
20260510061542 46 121 0.0 3.0 0.00 0.60 0.00 97 1012.5
20260510060041 46 114 0.0 2.0 0.00 0.60 0.00 97 1012.5
20260510054540 46 94 0.0 1.0 0.00 0.60 0.00 97 1012.7
20260510053039 46 117 0.0 2.0 0.00 0.60 0.00 97 1013.2
20260510051542 46 132 0.0 5.0 0.00 0.60 0.00 97 1013.2
20260510050036 46 123 0.0 2.0 0.00 0.60 0.00 97 1013.1
20260510044535 46 102 0.0 0.0 0.00 0.60 0.00 97 1013.1
20260510043034 46 186 0.0 1.0 0.00 0.60 0.00 97 1013.2
20260510041530 45 106 0.0 7.0 0.00 0.60 0.00 97 1012.9
20260510040028 45 139 0.0 2.0 0.00 0.60 0.00 97 1013.0
20260510034530 45 111 0.0 1.0 0.00 0.60 0.60 97 1013.3
20260510033028 45 112 0.0 1.0 0.00 0.60 0.60 97 1013.3
20260510031527 45 127 0.0 1.0 0.00 0.60 0.60 97 1013.7
20260510030026 45 104 0.0 5.0 0.00 0.60 0.60 97 1013.6
20260510024528 44 186 0.0 0.0 0.00 0.60 0.60 97 1013.9
20260510023025 44 159 0.0 0.0 0.00 0.60 0.60 97 1013.9
20260510021524 43 126 0.0 0.0 0.00 0.60 0.60 97 1013.9
20260510020023 43 186 0.0 0.0 0.00 0.60 0.60 97 1014.1
20260510014523 43 186 0.0 0.0 0.00 0.60 0.60 97 1014.2
20260510013022 43 186 0.0 0.0 0.00 0.60 0.60 97 1014.1
20260510011535 44 52 0.0 0.0 0.00 0.60 0.60 97 1014.1
20260510010021 44 53 0.0 0.0 0.00 0.60 0.60 97 1014.1
20260510004521 43 186 0.0 0.0 0.00 0.60 0.60 97 1013.9
20260510003024 43 186 0.0 0.0 0.00 0.60 0.60 97 1013.9
20260510001519 43 165 0.0 0.0 0.00 0.60 0.60 97 1013.6
20260510000022 43 92 0.0 0.0 0.00 0.60 0.60 97 1013.5
20260509234519 43 143 0.0 0.0 0.00 0.60 0.60 97 1013.4
20260509233018 43 181 0.0 0.0 0.00 0.60 0.60 96 1013.3
20260509231517 44 56 0.0 0.0 0.00 0.60 0.60 96 1013.2